Regional Weather Roundup
Issued by NWS

Home | Current Version | Previous Version | Graphics & Text | Print | Product List | Glossary On
Versions: 1 2 3 4 5 6 7 8 9 10 11 12 13 14 15 16 17 18 19 20 21 22 23 24 25 26 27 28 29 30 31 32 33 34 35 36 37 38 39 40 41 42 43 44 45 46 47 48 49 50
000
ASUS43 KDMX 161901
RWRIA

WEATHER ROUNDUP FOR IOWA
NATIONAL WEATHER SERVICE DES MOINES IA
100 PM CST MON JAN 16 2017

NOTE: "FAIR" INDICATES FEW OR NO CLOUDS BELOW 12,000 FEET WITH NO
SIGNIFICANT WEATHER AND/OR OBSTRUCTIONS TO VISIBILITY.

* - THESE STATIONS ARE NOT NWS STATIONS...THUS NOT UNDER NWS
QUALITY CONTROL.  THEY ALSO DO NOT REPORT WEATHER SUCH
AS PRECIPITATION OR FOG.

IAZ001>003-012>014-020>022-031>034-043>046-162000-
   NORTHWEST IOWA

CITY           SKY/WX    TMP DP  RH WIND       PRES   REMARKS
CARROLL *      FOG       34  34 100 E10       29.93F VSB 3/4 WCI  26
CHEROKEE *     MIX PCPN  32  32 100 N7        29.97F WCI  26
DENISON *      LGT RAIN  32  32 100 NE8       29.91F WCI  25
LE MARS *      LGT RAIN  32  32 100 NE10      29.99F VSB 1   WCI  24
ORANGE CITY *  MIX PCPN  30  30 100 NE6       29.98F WCI  24
SHELDON *      MIX PCPN  30  30 100 NE8       29.98F WCI  23
SIOUX CITY     LGT RAIN  34  32  92 N12       29.98F FOG     WCI  25
SPENCER        FRZ RAIN  31  30  96 NE13      30.00F VSB 3/4 WCI  21
STORM LAKE *   LGT RAIN  32  30  93 NE13      29.95F WCI  22
$$

IAZ055>058-069>071-079>083-090>094-162000-
   SOUTHWEST IOWA

CITY           SKY/WX    TMP DP  RH WIND       PRES   REMARKS
ATLANTIC *     LGT RAIN  34  32  93 NE8       29.89F WCI  27
AUDUBON *      MIX PCPN  34  30  86 E3        29.92F
CLARINDA *     CLOUDY    36  36 100 E6        29.90F FOG     WCI  31
COUNCIL BLFS * LGT RAIN  32  32 100 NE8       29.89F WCI  25
CRESTON *      CLOUDY    32  32 100 E12       29.90F FOG     WCI  23
HARLAN  *      LGT RAIN  34  32  93 NE7       29.93F WCI  28
LAMONI         FOG       33  33 100 E6        29.88F VSB 1/2 WCI  28
RED OAK *      CLOUDY    34  34 100 E7        29.88F FOG     WCI  28
SHENANDOAH *   CLOUDY    34  34 100 NE6       29.89F FOG     WCI  29
$$

IAZ047>049-059>061-072>074-084-162000-
   CENTRAL IOWA

CITY           SKY/WX    TMP DP  RH WIND       PRES   REMARKS
AMES           LGT RAIN  33  33 100 E6        29.94F FOG     WCI  28
ANKENY *       LGT RAIN  32  32 100 MISG      29.94F
BOONE *        CLOUDY    32  32 100 MISG      29.92F FOG
CHARITON *     LGT RAIN  34  32  93 E8        29.90F WCI  27
DES MOINES     LGT RAIN  34  32  92 SE8       29.93F FOG     WCI  27
GRINNELL*      LGT RAIN  32  32  99 E9        29.93F WCI  25
KNOXVILLE *    LGT RAIN  34  32  93 E7        29.91F WCI  28
MARSHALLTOWN   LGT RAIN  33  32  96 E12       29.94F FOG     WCI  24
NEWTON *       FOG       32  32 100 E12       29.92F VSB 3/4 WCI  23
PELLA *        LGT RAIN  33  32  96 SE6       29.95F WCI  27
PERRY *        LGT RAIN  33  33 100 E5        29.93F WCI  29
$$

IAZ004>006-015-016-023>025-035-036-162000-
   NORTH CENTRAL IOWA

CITY           SKY/WX    TMP DP  RH WIND       PRES   REMARKS
ALGONA *       LGT RAIN  32  32 100 NE9       29.99F VSB 1   WCI  24
CLARION *      CLOUDY    32  32 100 E10       29.97F FOG     WCI  24
ESTHERVILLE    FOG       29  29 100 NE12      30.00F VSB 1   WCI  19
FORT DODGE *   CLOUDY    32  30  93 CALM      29.97F
MASON CITY     MIX PCPN  32  30  92 E10       30.01F FOG     WCI  24
FOREST CITY *  LGT RAIN  32  32 100 E8        30.00F WCI  25
WEBSTER CITY * LGT RAIN  32  32 100 E12       29.93F WCI  23
IOWA FALLS *   LGT SNOW  33  32  96 E7        29.98F WCI  27
$$

IAZ007>011-017>019-026>030-037>042-050>054-066-162000-
   NORTHEAST IOWA

CITY           SKY/WX    TMP DP  RH WIND       PRES   REMARKS
CEDAR RAPIDS   LGT RAIN  32  32 100 E13       29.98F WCI  22
CHARLES CITY * LGT RAIN  32  32 100 MISG      30.02F
CLINTON *      LGT RAIN  34  34 100 E10       30.05F FOG     WCI  26
DECORAH *      MIX PCPN  32  32 100 E9        30.02F WCI  24
DUBUQUE        MIX PCPN  32  31  96 E9        30.05F FOG     WCI  24
MONTICELLO *   LGT RAIN  34  32  93 VRB5G13   30.02F WCI  30
OELWEIN *      LGT RAIN  32  32 100 E12       30.01F WCI  23
WATERLOO       RAIN      33  31  92 E9        29.99F FOG     WCI  25
$$

IAZ064-065-067-068-078-162000-
   EAST CENTRAL IOWA

CITY           SKY/WX    TMP DP  RH WIND       PRES   REMARKS
DAVENPORT      LGT RAIN  35  34  96 SE12G20   30.04F FOG     WCI  27
IOWA CITY      LGT RAIN  34  32  92 E8        30.01F FOG     WCI  27
MUSCATINE *    LGT RAIN  36  36 100 E6        30.02F WCI  31
QUAD CITIES    LGT RAIN  36  34  92 E10       30.03F FOG     WCI  28
$$

IAZ062-063-075>077-085>089-095>099-162000-
   SOUTHEAST IOWA

CITY           SKY/WX    TMP DP  RH WIND       PRES   REMARKS
BURLINGTON     MIX PCPN  36  36 100 E9        29.99F FOG     WCI  29
FAIRFIELD *    CLOUDY    36  34  93 E14       29.93F FOG     WCI  27
FORT MADISON * LGT RAIN  36  36 100 E10       29.97F WCI  28
KEOKUK *       CLOUDY    37  37 100 E16       29.94F WCI  28
OSKALOOSA *    LGT SNOW  33  33  98 E14       29.94F VSB 1   WCI  23
CENTERVILLE *  LGT RAIN  32  32 100 CALM      29.93F
OTTUMWA        RAIN      34  32  92 SE10      29.93F FOG     WCI  26
WASHINGTON *   LGT RAIN  34  34 100 E14       29.98F WCI  24
$$

ABBREVIATIONS USED IN REMARKS
   TC - TEMPERATURES IN CELSIUS
  WCI - WIND CHILL INDEX
   HX - HEAT INDEX
  VSB - VISIBILITY
$$





USA.gov is the U.S. government's official web portal to all federal, state and local government web resources and services.